XM-3 (RHYTHM)

Last updated on Mon Feb 02 2026 00:02:46 GMT+0000 (Coordinated Universal Time)

1 28626U 05008A 26032.39423397 .00000057 00000+0 00000+0 0 9990 2 28626 0.3054 83.6793 0004183 281.7640 141.7219 0.98950378 41254

Satellite not in orbit

XM-3 (RHYTHM)